NOAA 16 DEB, 41086

Orbit data source: Space-Track

NOAA 16 DEB, 41086 is space debris in SSO originally from a launch on Thu, 21 Sep 2000 UTC launched from the Air Force Western Test Range (AFWTR). Debris objects in space refer to the collection of defunct objects orbiting the Earth. Examples of debris include non-operational satellites, rocket bodies, and fragments generated from explosions, collisions, or faulty payload assembly.

Loading next visibility...
Identifier
41086, 2000-055AV
Orbit
SSO
Country
Flag of USUS
Related business
Manufacturer
Unknown
Mission
Spacecraft
Bus & Motor
Unknown
Mass
Unknown
Launch date (UTC)
2000-09-21 (26 years ago)
Launch vehicle
Unknown
Launch site
Air Force Western Test Range (AFWTR)
Object type
Payload
Rocket body
Debris
Shape & HBR
Unknown shape, 0.1 m
Radar Cross Section
Medium (>0.1 m² and <1 m²)

Expand to show TLE details & history
Last TLE update: 2 days ago

TLE from 2 days ago
0 NOAA 16 DEB
1 41086U 00055AV  26171.43545896  .00010508  00000-0  17582-2 0  9999
2 41086  98.8169 347.1118 0024749 324.9968  34.9607 14.69829974552217
Epoch: 2026-06-20T10:27Z
TLE epoch observation values (Epoch: 2026-06-20T10:27:03.654Z)
Latitude
-0.00008°
Longitude
-78.30353°
Altitude
650.322 km
Speed
7.54 km/s
True Right ascension
23h 08m 26s
True Declination
0° 00' 00"
Sunlit
Object was in daylight at epoch
Visualization orbit readout
Latitude
Unknown
Longitude
Unknown
Altitude
Unknown
Speed
Unknown
Apparent Right ascension
Unknown
Apparent Declination
Unknown
Sunlit
N/A
Visualization observer readout
Local Sidereal Time
21:57:41
Azimuth
Unknown
Elevation
Unknown
Doppler factor
Unknown
Orbital elements
Apogee altitude
676.124 km
Perigee altitude
641.293 km
Semi-major axis
7,036.846 km
Eccentricity
0.00247
Inclination
98.8169°
RAAN
347.1118°
Arg. of periapsis
324.9968°
True anomaly
35.12362°
Mean anomaly
34.9607°
Eccentric anomaly
35.04212°
Mean motion
3.67685 °/min
Orbital period
97.91 mins
BSTAR
0.0017582
Loading maneuver chart data...
Computing Atmospheric mass density...
Loading historical data...
Loading historical data...
Loading historical data...
Loading historical data...
Loading historical data...
Loading historical data...
Loading historical data...

Documentation

Showing up to 5 results
|